{"data":{"norad_id":65782,"intl_designator":"2025-217W","name":"KUIPER-00169","alt_names":[],"object_type":"PAYLOAD","status":"ACTIVE","operator":null,"country":"US","launch_date":"2025-09-25","launch_site_code":"AFETR","launch_vehicle":null,"mission":null,"orbit_class":"UNKNOWN","rcs_meters":null,"size_class":null,"mass_kg":null,"dimensions":null,"purposes":[],"wikipedia_slug":null,"has_3d_model":false,"image_url":null,"decayed_at":null,"tle_current":{"epoch":"2026-09-20T16:28:31.335456Z","epoch_age_seconds":130889,"freshness":"FRESH","line1":"1 65782U 25217W   26263.68647379  .00001762  00000+0  26005-3 0  9995","line2":"2 65782  51.9011 250.8490 0000643  79.5890 280.5145 14.79937774 53894","mean_motion":14.79937774,"eccentricity":6.43e-5,"inclination_deg":51.9011,"raan_deg":250.849,"arg_perigee_deg":79.589,"mean_anomaly_deg":280.5145,"bstar":0.00026005,"rev_number":5389,"period_min":97.301388294722,"perigee_km":629.06996649947,"apogee_km":629.97115126154,"semimajor_km":7007.6575588805,"source":"CELESTRAK","updated_at":"2026-09-21T09:00:15.561687Z"}}}